• Join FlightAware (Why Join?)
  • Login
  • US Flag 
08:53PM EDT


 

Airport Tracker/Info


-or-


 

Live Flight TrackerFlight Track Log ✈ SWA2058 ✈ 13-Apr-2013 ✈ KLAS - KSAN

Flight Track Log - Related Links

Times and Time Zones

All times are in EDT time to prevent confusion due to time zone crossing. See the SWA2058 flight status page for this flight to view local times or setup timezone preferences in your user account.

Time Position Orientation Groundspeed Altitude Reporting Facility
EDT Latitude Longitude Course Direction KTS MPH feet Rate Location/Type
10:26AM 36.0761 -115.1683 275° West 148 170 3,600  Level Los Angeles Center
10:26AM 36.0772 -115.1839 275° West 149 171 4,200 2,340 Climbing Los Angeles Center
10:27AM 36.0661 -115.2514 259° West 200 230 6,700 2,100 Climbing Los Angeles Center
10:28AM 36.0583 -115.2597 221° Southwest 194 223 7,000 300 Climbing Los Angeles Center
10:28AM 36.0047 -115.2872 203° Southwest 246 283 7,000  Level Los Angeles Center
10:29AM 35.9939 -115.2903 193° South 229 264 7,000 2,220 Level Los Angeles Center
10:29AM 35.9331 -115.3056 191° South 267 307 9,300 2,940 Climbing Los Angeles Center
10:30AM 35.9206 -115.3069 185° South 252 290 10,000 2,760 Climbing Los Angeles Center
10:31AM 35.8333 -115.3128 183° South 289 333 13,100 3,180 Climbing Los Angeles Center
10:32AM 35.7336 -115.3000 174° South 342 394 16,600 3,360 Climbing Los Angeles Center
10:33AM 35.6289 -115.2950 178° South 369 425 20,000 3,120 Climbing Los Angeles Center
10:34AM 35.4933 -115.3006 182° South 397 457 23,000 2,820 Climbing Los Angeles Center
10:35AM 35.3783 -115.3261 190° South 417 480 25,800 2,400 Climbing Los Angeles Center
10:36AM 35.2667 -115.3633 195° South 415 478 28,000 1,020 Climbing Los Angeles Center
10:37AM 35.1681 -115.3961 195° South 414 476 28,000  Level Los Angeles Center
10:38AM 35.0561 -115.4328 195° South 414 476 28,000  Level Los Angeles Center
10:39AM 34.9222 -115.4794 196° South 416 479 28,000  Level Los Angeles Center
10:40AM 34.8200 -115.5131 195° South 415 478 28,000  Level Los Angeles Center
10:41AM 34.7089 -115.5511 196° South 415 478 28,000  Level Los Angeles Center
10:42AM 34.5878 -115.5906 195° South 414 476 28,000  Level Los Angeles Center
10:43AM 34.4758 -115.6272 195° South 416 479 28,000  Level Los Angeles Center
10:44AM 34.3542 -115.6681 195° South 416 479 28,000  Level Los Angeles Center
10:45AM 34.2433 -115.7047 195° South 415 478 28,000  Level Los Angeles Center
10:46AM 34.1319 -115.7400 195° South 413 475 28,000  Level Los Angeles Center
10:47AM 34.0200 -115.7778 196° South 417 480 28,000  Level Los Angeles Center
10:48AM 33.9089 -115.8131 195° South 414 476 28,000  Level Los Angeles Center
10:49AM 33.7978 -115.8519 196° South 415 478 28,000 -240 Level Los Angeles Center
10:50AM 33.6636 -115.8944 195° South 415 478 27,600 -1,620 Descending Los Angeles Center
10:51AM 33.5514 -115.9306 195° South 417 480 24,700 -1,800 Descending Los Angeles Center
10:52AM 33.4614 -116.0125 217° Southwest 407 468 24,000 -1,560 Descending Los Angeles Center
10:53AM 33.3736 -116.0942 218° Southwest 402 463 21,600 -2,280 Descending Los Angeles Center
10:54AM 33.2883 -116.1756 219° Southwest 396 456 19,400 -2,160 Descending Los Angeles Center
10:55AM 33.2067 -116.2542 219° Southwest 382 440 17,200 -2,160 Descending Los Angeles Center
10:56AM 33.1281 -116.3283 218° Southwest 368 423 15,000 -2,220 Descending Los Angeles Center
10:57AM 33.0408 -116.4106 218° Southwest 355 409 12,700 -1,680 Descending Los Angeles Center
10:58AM 32.9764 -116.4844 224° Southwest 330 380 11,600 -1,260 Descending Los Angeles Center
10:59AM 32.9258 -116.5625 232° Southwest 298 343 10,200 -1,260 Descending Los Angeles Center
11:01AM 32.8783 -116.6336 232° Southwest 285 328 9,000 -1,260 Descending Los Angeles Center
11:02AM 32.8411 -116.6869 230° Southwest 276 318 7,700 -1,560 Descending Los Angeles Center
11:03AM 32.7767 -116.7831 231° Southwest 269 310 5,900 -1,380 Descending Los Angeles Center
11:04AM 32.7339 -116.8450 231° Southwest 256 295 4,900 -1,020 Descending Los Angeles Center
11:05AM 32.6919 -116.9056 231° Southwest 243 280 3,900 -600 Descending Los Angeles Center
11:06AM 32.6792 -116.9631 255° West 217 250 3,700 -660 Descending Los Angeles Center
11:07AM 32.7000 -117.0167 295° West 172 198 2,600 -960 Descending Southern California TRACON
11:08AM 32.7000 -117.0667 270° West 145 167 1,800 -720 Descending Southern California TRACON
11:09AM 32.7167 -117.1167 292° West 134 154 1,300 -600 Descending Southern California TRACON
11:10AM 32.7167 -117.1500 270° West 135 155 700 -480 Descending Southern California TRACON
11:11AM 32.7367 -117.2019 295° West 136 157 300 -360 Descending Los Angeles Center
11:13AM 32.7333 -117.1833 90° East  Level FlightAware Approximate